Time,TemperatureF,DewpointF,PressureIn,WindDirection,WindDirectionDegrees,WindSpeedMPH,WindSpeedGustMPH,Humidity,HourlyPrecipIn,Conditions,Clouds,dailyrainin,SoftwareType,DateUTC
2013-06-25 00:01:00,54.4,51.5,29.64,WNW,286,6.0,16.0,90,0.16,,,0.34,VWS V14.01,2013-06-25 06:01:00,
2013-06-25 00:06:00,54.1,50.9,29.64,WNW,288,4.0,10.0,89,0.16,,,0.00,VWS V14.01,2013-06-25 06:06:00,
2013-06-25 00:11:00,54.1,50.9,29.64,WNW,287,5.0,10.0,89,0.18,,,0.02,VWS V14.01,2013-06-25 06:11:00,
2013-06-25 00:16:00,54.0,50.8,29.64,West,272,6.0,10.0,89,0.18,,,0.02,VWS V14.01,2013-06-25 06:16:00,
2013-06-25 00:21:00,54.0,50.8,29.64,WSW,256,10.0,11.0,89,0.18,,,0.02,VWS V14.01,2013-06-25 06:21:00,
2013-06-25 00:26:00,54.1,50.9,29.64,SW,232,7.0,12.0,89,0.18,,,0.02,VWS V14.01,2013-06-25 06:26:00,
2013-06-25 00:31:00,54.1,50.9,29.64,WSW,238,9.0,12.0,89,0.19,,,0.03,VWS V14.01,2013-06-25 06:31:00,
2013-06-25 00:36:00,54.2,51.3,29.64,SW,223,8.0,13.0,90,0.12,,,0.03,VWS V14.01,2013-06-25 06:36:00,
2013-06-25 00:41:00,54.5,51.3,29.64,WSW,242,8.0,13.0,89,0.12,,,0.03,VWS V14.01,2013-06-25 06:41:00,
2013-06-25 00:46:00,54.5,51.3,29.65,WSW,242,5.0,13.0,89,0.13,,,0.04,VWS V14.01,2013-06-25 06:46:00,
2013-06-25 00:51:00,54.4,51.2,29.65,SW,219,4.0,13.0,89,0.13,,,0.04,VWS V14.01,2013-06-25 06:51:00,
2013-06-25 00:56:00,54.3,51.1,29.65,WSW,242,3.0,13.0,89,0.13,,,0.04,VWS V14.01,2013-06-25 06:56:00,
2013-06-25 01:01:00,54.2,51.0,29.65,WSW,242,5.0,13.0,89,0.13,,,0.04,VWS V14.01,2013-06-25 07:01:00,
2013-06-25 01:06:00,54.1,50.9,29.65,WSW,237,4.0,7.0,89,0.04,,,0.04,VWS V14.01,2013-06-25 07:06:00,
2013-06-25 01:11:00,53.9,51.0,29.65,SW,236,3.0,7.0,90,0.04,,,0.04,VWS V14.01,2013-06-25 07:11:00,
2013-06-25 01:16:00,53.8,50.9,29.65,West,261,6.0,9.0,90,0.04,,,0.04,VWS V14.01,2013-06-25 07:16:00,
2013-06-25 01:21:00,53.9,51.0,29.66,SW,224,5.0,11.0,90,0.02,,,0.04,VPLive 1.2.5.27,2013-06-25 07:21:00,
2013-06-25 01:26:00,54.1,50.9,29.66,SW,215,7.0,11.0,89,0.04,,,0.04,VWS V14.01,2013-06-25 07:26:00,
2013-06-25 01:31:00,54.1,50.9,29.66,SW,217,7.0,11.0,89,0.04,,,0.04,VWS V14.01,2013-06-25 07:31:00,
2013-06-25 01:36:00,54.1,50.9,29.66,West,263,10.0,12.0,89,0.01,,,0.04,VWS V14.01,2013-06-25 07:36:00,
2013-06-25 01:41:00,54.3,50.8,29.66,WSW,237,8.0,12.0,88,0.01,,,0.04,VWS V14.01,2013-06-25 07:41:00,
2013-06-25 01:46:00,54.5,51.0,29.66,WSW,257,5.0,12.0,88,0.01,,,0.04,VWS V14.01,2013-06-25 07:46:00,
2013-06-25 01:51:00,54.5,51.0,29.66,WSW,241,6.0,12.0,88,0.01,,,0.04,VWS V14.01,2013-06-25 07:51:00,
2013-06-25 01:56:00,54.5,51.0,29.66,SW,232,10.0,13.0,88,0.01,,,0.04,VWS V14.01,2013-06-25 07:56:00,
2013-06-25 02:01:00,54.4,50.9,29.66,WSW,250,6.0,13.0,88,0.01,,,0.04,VWS V14.01,2013-06-25 08:01:00,
2013-06-25 02:06:00,54.3,50.8,29.67,SW,225,8.0,10.0,88,0.00,,,0.04,VWS V14.01,2013-06-25 08:06:00,
2013-06-25 02:10:00,54.2,50.4,29.67,WSW,245,3.0,11.0,87,0.00,,,0.04,VWS V14.01,2013-06-25 08:10:00,
2013-06-25 02:15:00,54.1,50.6,29.67,WSW,258,6.0,12.0,88,0.00,,,0.04,VWS V14.01,2013-06-25 08:15:00,
2013-06-25 02:16:00,54.1,50.6,29.67,WSW,258,6.0,12.0,88,0.00,,,0.04,VWS V14.01,2013-06-25 08:16:00,
2013-06-25 02:20:00,54.0,50.5,29.66,WSW,242,8.0,12.0,88,0.00,,,0.04,VWS V14.01,2013-06-25 08:20:00,
2013-06-25 02:25:00,54.0,50.2,29.66,West,263,9.0,12.0,87,0.00,,,0.04,VWS V14.01,2013-06-25 08:25:00,
2013-06-25 02:30:00,54.2,50.4,29.66,WSW,242,7.0,12.0,87,0.00,,,0.04,VWS V14.01,2013-06-25 08:30:00,
2013-06-25 02:35:00,54.1,50.3,29.66,WSW,241,9.0,9.0,87,0.00,,,0.04,VWS V14.01,2013-06-25 08:35:00,
2013-06-25 02:40:00,54.1,50.3,29.66,WSW,250,8.0,10.0,87,0.00,,,0.04,VWS V14.01,2013-06-25 08:40:00,
2013-06-25 02:45:00,54.0,50.2,29.66,WSW,252,10.0,10.0,87,0.00,,,0.04,VWS V14.01,2013-06-25 08:45:00,
2013-06-25 02:50:00,54.0,49.9,29.67,WSW,246,7.0,11.0,86,0.00,,,0.04,VWS V14.01,2013-06-25 08:50:00,
2013-06-25 02:55:00,54.1,50.3,29.67,WSW,240,10.0,11.0,87,0.00,,,0.04,VWS V14.01,2013-06-25 08:55:00,
2013-06-25 03:00:00,53.9,50.1,29.67,WSW,254,7.0,11.0,87,0.00,,,0.04,VWS V14.01,2013-06-25 09:00:00,
2013-06-25 03:05:00,53.9,50.1,29.67,WSW,247,6.0,10.0,87,0.00,,,0.04,VWS V14.01,2013-06-25 09:05:00,
2013-06-25 03:10:00,53.9,50.1,29.67,WSW,250,6.0,10.0,87,0.00,,,0.04,VWS V14.01,2013-06-25 09:10:00,
2013-06-25 03:15:00,53.7,50.2,29.67,WSW,249,7.0,10.0,88,0.00,,,0.04,VWS V14.01,2013-06-25 09:15:00,
2013-06-25 03:20:00,53.6,50.1,29.67,WSW,247,5.0,10.0,88,0.00,,,0.04,VWS V14.01,2013-06-25 09:20:00,
2013-06-25 03:25:00,53.6,50.1,29.68,SW,223,6.0,10.0,88,0.00,,,0.04,VWS V14.01,2013-06-25 09:25:00,
2013-06-25 03:30:00,53.7,50.2,29.68,SW,234,6.0,10.0,88,0.00,,,0.04,VWS V14.01,2013-06-25 09:30:00,
2013-06-25 03:35:00,53.9,50.1,29.68,SW,229,9.0,9.0,87,0.00,,,0.04,VWS V14.01,2013-06-25 09:35:00,
2013-06-25 03:40:00,54.0,50.2,29.68,WSW,246,6.0,9.0,87,0.00,,,0.04,VWS V14.01,2013-06-25 09:40:00,
2013-06-25 03:41:00,54.0,50.2,29.68,SW,218,8.0,9.0,87,0.00,,,0.04,VWS V14.01,2013-06-25 09:41:00,
2013-06-25 03:46:00,53.8,50.3,29.68,WSW,246,5.0,9.0,88,0.00,,,0.04,VWS V14.01,2013-06-25 09:46:00,
2013-06-25 03:51:00,53.7,50.2,29.68,WSW,240,6.0,11.0,88,0.00,,,0.04,VWS V14.01,2013-06-25 09:51:00,
2013-06-25 03:56:00,53.9,50.1,29.68,WSW,240,4.0,11.0,87,0.00,,,0.04,VWS V14.01,2013-06-25 09:56:00,
2013-06-25 04:01:00,53.8,50.3,29.69,WSW,244,4.0,11.0,88,0.00,,,0.04,VWS V14.01,2013-06-25 10:01:00,
2013-06-25 04:06:00,53.5,50.3,29.69,WSW,244,0.0,4.0,89,0.00,,,0.04,VWS V14.01,2013-06-25 10:06:00,
2013-06-25 04:11:00,53.1,50.0,29.69,WSW,244,3.0,4.0,89,0.00,,,0.04,VWS V14.01,2013-06-25 10:11:00,
2013-06-25 04:16:00,52.8,50.0,29.69,WSW,244,0.0,4.0,90,0.00,,,0.04,VWS V14.01,2013-06-25 10:16:00,
2013-06-25 04:21:00,52.6,49.8,29.69,WSW,244,1.0,4.0,90,0.00,,,0.04,VWS V14.01,2013-06-25 10:21:00,
2013-06-25 04:26:00,52.5,49.7,29.70,WSW,244,0.0,4.0,90,0.00,,,0.04,VWS V14.01,2013-06-25 10:26:00,
2013-06-25 04:31:00,52.6,49.8,29.70,WSW,244,0.0,4.0,90,0.00,,,0.04,VWS V14.01,2013-06-25 10:31:00,
2013-06-25 04:36:00,52.6,49.8,29.70,WSW,244,0.0,4.0,90,0.00,,,0.04,VWS V14.01,2013-06-25 10:36:00,
2013-06-25 04:41:00,52.8,50.0,29.70,WSW,244,0.0,6.0,90,0.00,,,0.04,VWS V14.01,2013-06-25 10:41:00,
2013-06-25 04:46:00,53.2,50.0,29.70,WSW,244,3.0,6.0,89,0.00,,,0.04,VWS V14.01,2013-06-25 10:46:00,
2013-06-25 04:51:00,53.0,49.8,29.70,WSW,244,0.0,6.0,89,0.00,,,0.04,VWS V14.01,2013-06-25 10:51:00,
2013-06-25 04:56:00,52.7,49.8,29.70,WSW,244,0.0,6.0,90,0.00,,,0.04,VWS V14.01,2013-06-25 10:56:00,
2013-06-25 05:00:00,52.5,49.7,29.71,WSW,244,0.0,6.0,90,0.00,,,0.04,VWS V14.01,2013-06-25 11:00:00,
2013-06-25 05:06:00,52.3,49.5,29.71,WSW,244,0.0,0.0,90,0.00,,,0.04,VWS V14.01,2013-06-25 11:06:00,
2013-06-25 05:11:00,52.3,49.5,29.71,WSW,244,0.0,0.0,90,0.00,,,0.04,VWS V14.01,2013-06-25 11:11:00,
2013-06-25 05:16:00,52.1,49.3,29.71,WSW,244,0.0,0.0,90,0.00,,,0.04,VWS V14.01,2013-06-25 11:16:00,
2013-06-25 05:20:00,52.0,49.2,29.71,WSW,244,0.0,1.0,90,0.00,,,0.04,VWS V14.01,2013-06-25 11:20:00,
2013-06-25 05:21:00,52.0,49.2,29.71,WSW,244,0.0,1.0,90,0.00,,,0.04,VWS V14.01,2013-06-25 11:21:00,
2013-06-25 05:26:00,51.9,49.1,29.72,WSW,244,2.0,6.0,90,0.00,,,0.04,VWS V14.01,2013-06-25 11:26:00,
2013-06-25 05:31:00,52.0,48.9,29.72,WSW,244,3.0,6.0,89,0.00,,,0.04,VWS V14.01,2013-06-25 11:31:00,
2013-06-25 05:36:00,52.1,49.0,29.72,WSW,244,2.0,5.0,89,0.00,,,0.04,VWS V14.01,2013-06-25 11:36:00,
2013-06-25 05:41:00,52.1,49.0,29.72,WSW,244,5.0,5.0,89,0.00,,,0.04,VWS V14.01,2013-06-25 11:41:00,
2013-06-25 05:46:00,52.2,49.1,29.72,West,259,5.0,9.0,89,0.00,,,0.04,VWS V14.01,2013-06-25 11:46:00,
2013-06-25 05:51:00,52.3,49.2,29.72,West,262,7.0,9.0,89,0.00,,,0.04,VWS V14.01,2013-06-25 11:51:00,
2013-06-25 05:56:00,52.5,49.7,29.72,WSW,256,6.0,9.0,90,0.00,,,0.04,VWS V14.01,2013-06-25 11:56:00,
2013-06-25 06:01:00,52.7,49.8,29.72,WSW,241,8.0,10.0,90,0.00,,,0.04,VWS V14.01,2013-06-25 12:01:00,
2013-06-25 06:06:00,53.1,50.0,29.72,SW,224,8.0,10.0,89,0.00,,,0.04,VWS V14.01,2013-06-25 12:06:00,
2013-06-25 06:11:00,53.3,49.8,29.72,WSW,242,6.0,10.0,88,0.00,,,0.04,VWS V14.01,2013-06-25 12:11:00,
2013-06-25 06:16:00,53.5,49.7,29.73,SW,223,5.0,10.0,87,0.00,,,0.04,VWS V14.01,2013-06-25 12:16:00,
2013-06-25 06:21:00,53.7,49.6,29.73,WSW,250,7.0,11.0,86,0.00,,,0.04,VWS V14.01,2013-06-25 12:21:00,
2013-06-25 06:26:00,53.6,49.5,29.73,West,259,4.0,11.0,86,0.00,,,0.04,VWS V14.01,2013-06-25 12:26:00,
2013-06-25 06:30:00,53.5,49.7,29.73,WSW,246,5.0,11.0,87,0.00,,,0.04,VWS V14.01,2013-06-25 12:30:00,
2013-06-25 06:35:00,53.6,49.8,29.73,WSW,254,7.0,7.0,87,0.00,,,0.04,VWS V14.01,2013-06-25 12:35:00,
2013-06-25 06:40:00,53.8,49.7,29.73,WSW,247,7.0,10.0,86,0.00,,,0.04,VWS V14.01,2013-06-25 12:40:00,
2013-06-25 06:45:00,54.0,49.6,29.73,SW,223,4.0,10.0,85,0.00,,,0.04,VWS V14.01,2013-06-25 12:45:00,
2013-06-25 06:50:00,54.0,49.9,29.74,SW,217,1.0,10.0,86,0.00,,,0.04,VWS V14.01,2013-06-25 12:50:00,
2013-06-25 06:55:00,53.8,49.7,29.73,West,259,6.0,10.0,86,0.00,,,0.04,VWS V14.01,2013-06-25 12:55:00,
2013-06-25 07:00:00,53.5,49.7,29.73,WSW,250,5.0,10.0,87,0.00,,,0.04,VWS V14.01,2013-06-25 13:00:00,
2013-06-25 07:05:00,53.0,49.2,29.73,WSW,253,10.0,10.0,87,0.00,,,0.04,VWS V14.01,2013-06-25 13:05:00,
2013-06-25 07:10:00,52.9,49.5,29.73,WSW,250,7.0,11.0,88,0.00,,,0.04,VWS V14.01,2013-06-25 13:10:00,
2013-06-25 07:15:00,53.1,49.7,29.73,West,264,9.0,11.0,88,0.00,,,0.04,VWS V14.01,2013-06-25 13:15:00,
2013-06-25 07:20:00,53.3,49.8,29.73,SW,225,14.0,14.0,88,0.00,,,0.04,VWS V14.01,2013-06-25 13:20:00,
2013-06-25 07:25:00,53.6,49.8,29.73,WSW,257,9.0,14.0,87,0.00,,,0.04,VWS V14.01,2013-06-25 13:25:00,
2013-06-25 07:30:00,53.8,50.0,29.73,WSW,250,7.0,14.0,87,0.00,,,0.04,VWS V14.01,2013-06-25 13:30:00,
2013-06-25 07:35:00,54.0,50.2,29.73,WSW,250,10.0,14.0,87,0.00,,,0.04,VWS V14.01,2013-06-25 13:35:00,
2013-06-25 07:40:00,54.1,50.0,29.73,West,262,11.0,15.0,86,0.00,,,0.04,VWS V14.01,2013-06-25 13:40:00,
2013-06-25 07:45:00,54.4,50.0,29.74,WSW,253,10.0,17.0,85,0.00,,,0.04,VWS V14.01,2013-06-25 13:45:00,
2013-06-25 07:50:00,54.3,49.9,29.74,WSW,249,7.0,17.0,85,0.00,,,0.04,VWS V14.01,2013-06-25 13:50:00,
2013-06-25 07:55:00,54.6,49.9,29.74,WSW,254,8.0,17.0,84,0.00,,,0.04,VWS V14.01,2013-06-25 13:55:00,
2013-06-25 08:00:00,55.0,49.9,29.74,West,275,11.0,17.0,83,0.00,,,0.04,VWS V14.01,2013-06-25 14:00:00,
2013-06-25 08:05:00,55.3,50.2,29.74,West,262,8.0,12.0,83,0.00,,,0.04,VWS V14.01,2013-06-25 14:05:00,
2013-06-25 08:10:00,55.5,49.8,29.74,WSW,252,12.0,14.0,81,0.00,,,0.04,VWS V14.01,2013-06-25 14:10:00,
2013-06-25 08:15:00,55.8,50.1,29.74,WSW,254,8.0,15.0,81,0.00,,,0.04,VWS V14.01,2013-06-25 14:15:00,
2013-06-25 08:20:00,55.8,49.4,29.75,West,273,8.0,15.0,79,0.00,,,0.04,VWS V14.01,2013-06-25 14:20:00,
2013-06-25 08:25:00,55.8,50.1,29.75,West,277,3.0,9.0,81,0.00,,,0.04,VPLive 1.2.5.27,2013-06-25 14:25:00,
2013-06-25 08:30:00,55.9,50.2,29.75,West,263,6.0,15.0,81,0.00,,,0.04,VWS V14.01,2013-06-25 14:30:00,
2013-06-25 08:35:00,56.1,49.0,29.75,SW,234,4.0,8.0,77,0.00,,,0.04,VWS V14.01,2013-06-25 14:35:00,
2013-06-25 08:40:00,56.3,49.2,29.75,WSW,252,4.0,8.0,77,0.00,,,0.04,VWS V14.01,2013-06-25 14:40:00,
2013-06-25 08:45:00,56.5,48.3,29.75,WNW,288,8.0,11.0,74,0.00,,,0.04,VWS V14.01,2013-06-25 14:45:00,
2013-06-25 08:50:00,56.4,47.9,29.75,WNW,286,4.0,11.0,73,0.00,,,0.04,VWS V14.01,2013-06-25 14:50:00,
2013-06-25 08:55:00,56.3,48.1,29.76,West,271,5.0,11.0,74,0.00,,,0.04,VWS V14.01,2013-06-25 14:55:00,
2013-06-25 09:00:00,56.2,48.0,29.76,WNW,301,3.0,11.0,74,0.00,,,0.04,VWS V14.01,2013-06-25 15:00:00,
2013-06-25 09:05:00,56.2,48.0,29.76,WNW,299,2.0,5.0,74,0.00,,,0.04,VWS V14.01,2013-06-25 15:05:00,
2013-06-25 09:10:00,56.2,49.1,29.76,WSW,240,1.0,7.0,77,0.00,,,0.04,VWS V14.01,2013-06-25 15:10:00,
2013-06-25 09:15:00,56.6,46.6,29.76,West,277,8.0,13.0,69,0.00,,,0.04,VWS V14.01,2013-06-25 15:15:00,
2013-06-25 09:20:00,57.3,46.5,29.76,WNW,299,9.0,14.0,67,0.00,,,0.04,VWS V14.01,2013-06-25 15:20:00,
2013-06-25 09:25:00,57.8,47.3,29.76,WNW,283,8.0,14.0,68,0.00,,,0.04,VWS V14.01,2013-06-25 15:25:00,
2013-06-25 09:30:00,58.2,47.7,29.76,WNW,284,7.0,14.0,68,0.00,,,0.04,VWS V14.01,2013-06-25 15:30:00,
2013-06-25 09:35:00,58.2,47.7,29.76,WSW,252,8.0,12.0,68,0.00,,,0.04,VWS V14.01,2013-06-25 15:35:00,
2013-06-25 09:40:00,58.5,47.2,29.76,West,267,10.0,17.0,66,0.00,,,0.04,VWS V14.01,2013-06-25 15:40:00,
2013-06-25 09:45:00,59.0,47.3,29.76,WNW,296,11.0,18.0,65,0.00,,,0.04,VWS V14.01,2013-06-25 15:45:00,
2013-06-25 09:50:00,59.0,46.8,29.77,WNW,294,13.0,18.0,64,0.00,,,0.04,VWS V14.01,2013-06-25 15:50:00,
2013-06-25 09:55:00,59.0,44.3,29.77,West,274,10.0,18.0,58,0.00,,,0.04,VWS V14.01,2013-06-25 15:55:00,
2013-06-25 10:00:00,59.0,44.7,29.76,WNW,285,17.0,19.0,59,0.00,,,0.04,VWS V14.01,2013-06-25 16:00:00,
2013-06-25 10:01:00,59.0,44.7,29.76,West,277,18.0,23.0,59,0.00,,,0.04,VWS V14.01,2013-06-25 16:01:00,
2013-06-25 10:06:00,59.1,44.3,29.77,WNW,292,12.0,19.0,58,0.00,,,0.04,VWS V14.01,2013-06-25 16:06:00,
2013-06-25 10:11:00,59.6,44.4,29.76,West,280,11.0,20.0,57,0.00,,,0.04,VWS V14.01,2013-06-25 16:11:00,
2013-06-25 10:16:00,59.8,45.9,29.77,WNW,290,8.0,20.0,60,0.00,,,0.04,VWS V14.01,2013-06-25 16:16:00,
2013-06-25 10:21:00,59.7,45.8,29.77,WNW,295,11.0,20.0,60,0.00,,,0.04,VWS V14.01,2013-06-25 16:21:00,
2013-06-25 10:26:00,59.8,45.5,29.77,WNW,282,11.0,20.0,59,0.00,,,0.04,VWS V14.01,2013-06-25 16:26:00,
2013-06-25 10:31:00,59.8,45.5,29.77,West,275,10.0,20.0,59,0.00,,,0.04,VWS V14.01,2013-06-25 16:31:00,
2013-06-25 10:36:00,61.1,46.2,29.77,WNW,298,10.0,18.0,58,0.00,,,0.04,VWS V14.01,2013-06-25 16:36:00,
2013-06-25 10:41:00,60.9,46.0,29.77,West,275,9.0,18.0,58,0.00,,,0.04,VWS V14.01,2013-06-25 16:41:00,
2013-06-25 10:46:00,60.3,45.9,29.77,WNW,291,9.0,18.0,59,0.00,,,0.04,VWS V14.01,2013-06-25 16:46:00,
2013-06-25 10:51:00,59.6,44.8,29.77,West,263,12.0,18.0,58,0.00,,,0.04,VWS V14.01,2013-06-25 16:51:00,
2013-06-25 10:56:00,60.2,45.8,29.77,WNW,301,10.0,18.0,59,0.00,,,0.04,VWS V14.01,2013-06-25 16:56:00,
2013-06-25 11:01:00,61.1,46.2,29.77,NNW,337,12.0,18.0,58,0.00,,,0.04,VWS V14.01,2013-06-25 17:01:00,
2013-06-25 11:06:00,61.1,44.8,29.77,West,261,7.0,13.0,55,0.00,,,0.04,VWS V14.01,2013-06-25 17:06:00,
2013-06-25 11:11:00,61.2,45.4,29.77,NW,318,6.0,13.0,56,0.00,,,0.04,VWS V14.01,2013-06-25 17:11:00,
2013-06-25 11:16:00,60.8,46.4,29.77,NW,317,0.0,13.0,59,0.00,,,0.04,VWS V14.01,2013-06-25 17:16:00,
2013-06-25 11:21:00,61.5,46.6,29.77,West,280,8.0,13.0,58,0.00,,,0.04,VWS V14.01,2013-06-25 17:21:00,
2013-06-25 11:26:00,62.0,45.2,29.77,West,262,8.0,13.0,54,0.00,,,0.04,VWS V14.01,2013-06-25 17:26:00,
2013-06-25 11:31:00,62.3,46.9,29.77,WSW,255,6.0,13.0,57,0.00,,,0.04,VWS V14.01,2013-06-25 17:31:00,
2013-06-25 11:36:00,62.5,48.4,29.76,West,269,7.0,9.0,60,0.00,,,0.04,VWS V14.01,2013-06-25 17:36:00,
2013-06-25 11:41:00,62.6,45.7,29.77,West,280,6.0,14.0,54,0.00,,,0.04,VWS V14.01,2013-06-25 17:41:00,
2013-06-25 11:46:00,62.7,46.8,29.76,West,259,4.0,14.0,56,0.00,,,0.04,VWS V14.01,2013-06-25 17:46:00,
2013-06-25 11:51:00,63.1,46.7,29.76,WNW,286,6.0,14.0,55,0.00,,,0.04,VWS V14.01,2013-06-25 17:51:00,
2013-06-25 11:56:00,62.9,45.0,29.76,NW,311,8.0,14.0,52,0.00,,,0.04,VWS V14.01,2013-06-25 17:56:00,
2013-06-25 12:01:00,62.5,45.2,29.76,NW,313,3.0,14.0,53,0.00,,,0.04,VWS V14.01,2013-06-25 18:01:00,
2013-06-25 12:06:00,62.5,46.6,29.76,NNW,333,6.0,9.0,56,0.00,,,0.04,VWS V14.01,2013-06-25 18:06:00,
2013-06-25 12:11:00,63.0,45.6,29.76,West,280,11.0,11.0,53,0.00,,,0.04,VWS V14.01,2013-06-25 18:11:00,
2013-06-25 12:16:00,62.9,45.5,29.76,West,261,9.0,16.0,53,0.00,,,0.04,VWS V14.01,2013-06-25 18:16:00,
2013-06-25 12:21:00,63.0,47.1,29.76,SW,221,4.0,16.0,56,0.00,,,0.04,VWS V14.01,2013-06-25 18:21:00,
2013-06-25 12:26:00,63.4,46.5,29.76,SW,229,2.0,16.0,54,0.00,,,0.04,VWS V14.01,2013-06-25 18:26:00,
2013-06-25 12:31:00,63.6,46.7,29.76,WNW,298,4.0,16.0,54,0.00,,,0.04,VWS V14.01,2013-06-25 18:31:00,
2013-06-25 12:36:00,63.6,46.2,29.76,West,268,0.0,10.0,53,0.00,,,0.04,VWS V14.01,2013-06-25 18:36:00,
2013-06-25 12:41:00,63.8,47.8,29.76,West,261,8.0,10.0,56,0.00,,,0.04,VWS V14.01,2013-06-25 18:41:00,
2013-06-25 12:46:00,63.4,45.0,29.76,SW,234,7.0,12.0,51,0.00,,,0.04,VWS V14.01,2013-06-25 18:46:00,
2013-06-25 12:51:00,62.9,46.0,29.77,West,271,6.0,12.0,54,0.00,,,0.04,VWS V14.01,2013-06-25 18:51:00,
2013-06-25 12:56:00,62.5,45.2,29.77,West,261,4.0,12.0,53,0.00,,,0.04,VWS V14.01,2013-06-25 18:56:00,
2013-06-25 13:01:00,62.5,46.1,29.77,SW,232,4.0,12.0,55,0.00,,,0.04,VWS V14.01,2013-06-25 19:01:00,
2013-06-25 13:06:00,62.6,45.7,29.77,SW,232,0.0,4.0,54,0.00,,,0.04,VWS V14.01,2013-06-25 19:06:00,
2013-06-25 13:11:00,63.1,46.2,29.77,SW,232,3.0,5.0,54,0.00,,,0.04,VWS V14.01,2013-06-25 19:11:00,
2013-06-25 13:16:00,63.7,46.3,29.76,WSW,258,0.0,5.0,53,0.00,,,0.04,VWS V14.01,2013-06-25 19:16:00,
2013-06-25 13:21:00,63.8,46.8,29.76,West,259,6.0,6.0,54,0.00,,,0.04,VWS V14.01,2013-06-25 19:21:00,
2013-06-25 13:26:00,63.6,46.7,29.76,WNW,295,5.0,8.0,54,0.00,,,0.04,VWS V14.01,2013-06-25 19:26:00,
2013-06-25 13:31:00,63.3,46.4,29.76,WNW,286,5.0,8.0,54,0.00,,,0.04,VWS V14.01,2013-06-25 19:31:00,
2013-06-25 13:36:00,62.9,46.0,29.76,West,267,2.0,8.0,54,0.00,,,0.04,VWS V14.01,2013-06-25 19:36:00,
2013-06-25 13:41:00,63.1,46.2,29.76,West,265,3.0,8.0,54,0.00,,,0.04,VWS V14.01,2013-06-25 19:41:00,
2013-06-25 13:46:00,63.4,46.5,29.76,West,264,6.0,8.0,54,0.00,,,0.04,VWS V14.01,2013-06-25 19:46:00,
2013-06-25 13:51:00,63.9,46.5,29.76,West,265,0.0,8.0,53,0.00,,,0.04,VWS V14.01,2013-06-25 19:51:00,
2013-06-25 13:55:00,64.4,46.9,29.75,WSW,241,1.0,8.0,53,0.00,,,0.04,VWS V14.01,2013-06-25 19:55:00,
2013-06-25 14:00:00,64.6,46.6,29.75,WSW,241,3.0,8.0,52,0.00,,,0.04,VWS V14.01,2013-06-25 20:00:00,
2013-06-25 14:06:00,64.3,46.8,29.75,West,271,6.0,6.0,53,0.00,,,0.04,VWS V14.01,2013-06-25 20:06:00,
2013-06-25 14:10:00,64.5,48.0,29.75,West,271,4.0,6.0,55,0.00,,,0.04,VWS V14.01,2013-06-25 20:10:00,
2013-06-25 14:15:00,65.3,47.2,29.75,WSW,257,3.0,7.0,52,0.00,,,0.04,VWS V14.01,2013-06-25 20:15:00,
2013-06-25 14:20:00,65.8,46.1,29.74,West,263,0.0,7.0,49,0.00,,,0.04,VWS V14.01,2013-06-25 20:20:00,
2013-06-25 14:25:00,66.8,47.0,29.74,WNW,282,0.0,8.0,49,0.00,,,0.04,VWS V14.01,2013-06-25 20:25:00,
2013-06-25 14:31:00,67.0,48.3,29.73,SW,214,0.0,8.0,51,0.00,,,0.04,VWS V14.01,2013-06-25 20:31:00,
2013-06-25 14:36:00,66.6,46.3,29.73,WNW,298,4.0,6.0,48,0.00,,,0.04,VWS V14.01,2013-06-25 20:36:00,
2013-06-25 14:41:00,65.9,46.8,29.73,WNW,298,0.0,6.0,50,0.00,,,0.04,VWS V14.01,2013-06-25 20:41:00,
2013-06-25 14:46:00,66.1,47.5,29.73,WNW,290,2.0,6.0,51,0.00,,,0.04,VWS V14.01,2013-06-25 20:46:00,
2013-06-25 14:51:00,66.2,46.5,29.72,NW,309,1.0,6.0,49,0.00,,,0.04,VWS V14.01,2013-06-25 20:51:00,
2013-06-25 14:56:00,66.2,47.0,29.72,NNE,19,2.0,6.0,50,0.00,,,0.04,VWS V14.01,2013-06-25 20:56:00,
2013-06-25 15:01:00,66.8,49.6,29.72,ENE,73,4.0,7.0,54,0.00,,,0.04,VWS V14.01,2013-06-25 21:01:00,
2013-06-25 15:06:00,67.0,50.3,29.72,East,88,2.0,6.0,55,0.00,,,0.04,VWS V14.01,2013-06-25 21:06:00,
2013-06-25 15:11:00,67.7,49.5,29.72,SSE,153,0.0,11.0,52,0.00,,,0.04,VWS V14.01,2013-06-25 21:11:00,
2013-06-25 15:16:00,67.2,50.0,29.71,ESE,116,0.0,11.0,54,0.00,,,0.04,VWS V14.01,2013-06-25 21:16:00,
2013-06-25 15:21:00,67.3,50.1,29.71,SE,132,0.0,11.0,54,0.00,,,0.04,VWS V14.01,2013-06-25 21:21:00,
2013-06-25 15:26:00,67.3,50.6,29.71,SE,132,0.0,11.0,55,0.00,,,0.04,VWS V14.01,2013-06-25 21:26:00,
2013-06-25 15:31:00,67.3,50.6,29.71,East,92,4.0,11.0,55,0.00,,,0.04,VWS V14.01,2013-06-25 21:31:00,
2013-06-25 15:36:00,66.5,50.8,29.71,ESE,115,5.0,14.0,57,0.00,,,0.04,VWS V14.01,2013-06-25 21:36:00,
2013-06-25 15:41:00,65.3,50.2,29.71,ESE,119,7.0,14.0,58,0.00,,,0.04,VWS V14.01,2013-06-25 21:41:00,
2013-06-25 15:46:00,64.5,49.9,29.71,ESE,119,6.0,14.0,59,0.00,,,0.04,VWS V14.01,2013-06-25 21:46:00,
2013-06-25 15:51:00,63.9,49.8,29.71,SE,134,1.0,14.0,60,0.00,,,0.04,VWS V14.01,2013-06-25 21:51:00,
2013-06-25 15:56:00,63.3,50.1,29.71,SSE,152,10.0,14.0,62,0.00,,,0.04,VWS V14.01,2013-06-25 21:56:00,
2013-06-25 16:01:00,62.3,50.4,29.72,SSE,168,6.0,11.0,65,0.00,,,0.04,VPLive 1.2.5.27,2013-06-25 22:01:00,
2013-06-25 16:06:00,60.5,51.1,29.73,SSW,204,8.0,15.0,71,0.03,,,0.07,VWS V14.01,2013-06-25 22:06:00,
2013-06-25 16:11:00,58.2,50.7,29.74,SSW,198,8.0,15.0,76,0.04,,,0.08,VWS V14.01,2013-06-25 22:11:00,
2013-06-25 16:16:00,56.8,51.0,29.75,WSW,249,7.0,16.0,81,0.10,,,0.14,VWS V14.01,2013-06-25 22:16:00,
2013-06-25 16:21:00,55.8,51.4,29.76,SSW,207,11.0,16.0,85,0.16,,,0.20,VWS V14.01,2013-06-25 22:21:00,
2013-06-25 16:26:00,55.4,51.3,29.75,SSW,202,7.0,16.0,86,0.19,,,0.23,VWS V14.01,2013-06-25 22:26:00,
2013-06-25 16:31:00,55.3,51.5,29.75,SSW,213,8.0,16.0,87,0.20,,,0.24,VWS V14.01,2013-06-25 22:31:00,
2013-06-25 16:36:00,55.3,51.5,29.76,WSW,239,7.0,8.0,87,0.20,,,0.24,VWS V14.01,2013-06-25 22:36:00,
2013-06-25 16:41:00,55.5,51.7,29.76,SW,228,8.0,10.0,87,0.22,,,0.26,VWS V14.01,2013-06-25 22:41:00,
2013-06-25 16:45:00,55.8,52.3,29.75,SW,223,0.0,10.0,88,0.22,,,0.26,VWS V14.01,2013-06-25 22:45:00,
2013-06-25 16:50:00,56.2,52.7,29.76,SW,214,0.0,10.0,88,0.22,,,0.26,VWS V14.01,2013-06-25 22:50:00,
2013-06-25 16:55:00,56.7,53.5,29.76,West,261,2.0,10.0,89,0.22,,,0.26,VWS V14.01,2013-06-25 22:55:00,
2013-06-25 17:00:00,57.0,53.5,29.76,North,360,4.0,10.0,88,0.22,,,0.26,VWS V14.01,2013-06-25 23:00:00,
2013-06-25 17:05:00,57.4,53.6,29.76,North,360,0.0,5.0,87,0.19,,,0.26,VPLive 1.2.5.27,2013-06-25 23:05:00,
2013-06-25 17:10:00,57.7,53.5,29.76,NW,321,3.0,5.0,86,0.21,,,0.26,VWS V14.01,2013-06-25 23:10:00,
2013-06-25 17:15:00,58.0,54.2,29.77,WNW,286,4.0,7.0,87,0.21,,,0.26,VWS V14.01,2013-06-25 23:15:00,
2013-06-25 17:20:00,58.5,54.3,29.77,SW,232,14.0,16.0,86,0.21,,,0.26,VWS V14.01,2013-06-25 23:20:00,
2013-06-25 17:25:00,58.4,52.9,29.76,SW,230,9.0,16.0,82,0.21,,,0.26,VWS V14.01,2013-06-25 23:25:00,
2013-06-25 17:30:00,58.2,53.1,29.77,WSW,252,7.0,16.0,83,0.21,,,0.26,VWS V14.01,2013-06-25 23:30:00,
2013-06-25 17:35:00,58.2,53.4,29.77,WSW,245,9.0,12.0,84,0.02,,,0.26,VWS V14.01,2013-06-25 23:35:00,
2013-06-25 17:40:00,58.0,52.5,29.77,SW,223,9.0,14.0,82,0.02,,,0.26,VWS V14.01,2013-06-25 23:40:00,
2013-06-25 17:45:00,57.8,52.0,29.77,SW,221,8.0,14.0,81,0.02,,,0.26,VWS V14.01,2013-06-25 23:45:00,
2013-06-25 17:50:00,57.6,52.5,29.77,WSW,241,5.0,14.0,83,0.02,,,0.26,VWS V14.01,2013-06-25 23:50:00,
2013-06-25 17:55:00,57.5,52.4,29.78,SSW,205,6.0,14.0,83,0.02,,,0.26,VWS V14.01,2013-06-25 23:55:00,
2013-06-25 18:00:00,57.3,52.2,29.78,SW,214,6.0,14.0,83,0.02,,,0.26,VWS V14.01,2013-06-26 00:00:00,
2013-06-25 18:05:00,57.0,51.6,29.78,SSW,211,7.0,11.0,82,0.00,,,0.26,VWS V14.01,2013-06-26 00:05:00,
2013-06-25 18:10:00,56.7,51.6,29.77,SSW,197,6.0,11.0,83,0.00,,,0.26,VWS V14.01,2013-06-26 00:10:00,
2013-06-25 18:15:00,56.6,52.1,29.78,SW,223,5.0,8.0,85,0.00,,,0.26,VPLive 1.2.5.27,2013-06-26 00:15:00,
2013-06-25 18:20:00,56.7,52.2,29.78,SW,222,7.0,11.0,85,0.00,,,0.26,VWS V14.01,2013-06-26 00:20:00,
2013-06-25 18:25:00,56.7,52.6,29.78,SW,222,3.0,11.0,86,0.00,,,0.26,VWS V14.01,2013-06-26 00:25:00,
2013-06-25 18:30:00,56.7,52.6,29.78,SSW,211,6.0,11.0,86,0.00,,,0.26,VWS V14.01,2013-06-26 00:30:00,
2013-06-25 18:35:00,56.7,51.9,29.79,SW,228,4.0,8.0,84,0.00,,,0.26,VWS V14.01,2013-06-26 00:35:00,
2013-06-25 18:40:00,56.7,51.9,29.79,SW,215,7.0,8.0,84,0.00,,,0.26,VWS V14.01,2013-06-26 00:40:00,
2013-06-25 18:45:00,56.9,51.5,29.78,SW,227,5.0,8.0,82,0.00,,,0.26,VWS V14.01,2013-06-26 00:45:00,
2013-06-25 18:50:00,57.0,52.2,29.78,SW,227,2.0,8.0,84,0.00,,,0.26,VWS V14.01,2013-06-26 00:50:00,
2013-06-25 18:55:00,57.0,52.9,29.78,SW,227,0.0,8.0,86,0.00,,,0.26,VWS V14.01,2013-06-26 00:55:00,
2013-06-25 19:01:00,57.1,53.3,29.78,SW,227,0.0,8.0,87,0.00,,,0.26,VWS V14.01,2013-06-26 01:01:00,
2013-06-25 19:06:00,57.3,53.2,29.78,SW,227,0.0,0.0,86,0.00,,,0.26,VWS V14.01,2013-06-26 01:06:00,
2013-06-25 19:11:00,57.7,53.9,29.78,SW,227,1.0,1.0,87,0.00,,,0.26,VWS V14.01,2013-06-26 01:11:00,
2013-06-25 19:16:00,58.0,54.2,29.78,SW,224,0.0,2.0,87,0.00,,,0.26,VWS V14.01,2013-06-26 01:16:00,
2013-06-25 19:21:00,58.1,54.3,29.78,SW,224,0.0,2.0,87,0.00,,,0.26,VWS V14.01,2013-06-26 01:21:00,
2013-06-25 19:26:00,58.1,53.6,29.78,SW,227,0.0,2.0,85,0.00,,,0.26,VWS V14.01,2013-06-26 01:26:00,
2013-06-25 19:31:00,58.1,53.9,29.78,NW,323,0.0,2.0,86,0.00,,,0.26,VWS V14.01,2013-06-26 01:31:00,
2013-06-25 19:35:00,58.1,54.3,29.78,NW,323,0.0,1.0,87,0.00,,,0.26,VWS V14.01,2013-06-26 01:35:00,
2013-06-25 19:40:00,57.8,54.0,29.78,NW,323,0.0,2.0,87,0.00,,,0.26,VWS V14.01,2013-06-26 01:40:00,
2013-06-25 19:45:00,57.8,54.3,29.78,NW,323,0.0,2.0,88,0.00,,,0.26,VWS V14.01,2013-06-26 01:45:00,
2013-06-25 19:50:00,57.8,54.3,29.78,NW,323,0.0,2.0,88,0.00,,,0.26,VWS V14.01,2013-06-26 01:50:00,
2013-06-25 19:55:00,57.9,54.4,29.78,SSE,165,0.0,2.0,88,0.00,,,0.26,VWS V14.01,2013-06-26 01:55:00,
2013-06-25 20:00:00,57.9,54.4,29.78,SSE,165,0.0,2.0,88,0.00,,,0.26,VWS V14.01,2013-06-26 02:00:00,
2013-06-25 20:05:00,58.0,54.8,29.78,SSE,165,0.0,0.0,89,0.00,,,0.26,VWS V14.01,2013-06-26 02:05:00,
2013-06-25 20:10:00,57.7,54.5,29.78,SSE,165,2.0,4.0,89,0.00,,,0.26,VWS V14.01,2013-06-26 02:10:00,
2013-06-25 20:15:00,57.4,54.2,29.78,SW,219,3.0,6.0,89,0.00,,,0.26,VWS V14.01,2013-06-26 02:15:00,
2013-06-25 20:20:00,57.2,54.0,29.78,SW,219,2.0,6.0,89,0.00,,,0.26,VWS V14.01,2013-06-26 02:20:00,
2013-06-25 20:25:00,57.0,53.8,29.79,SW,219,0.0,6.0,89,0.00,,,0.26,VWS V14.01,2013-06-26 02:25:00,
2013-06-25 20:30:00,57.1,53.9,29.78,SW,219,0.0,6.0,89,0.00,,,0.26,VWS V14.01,2013-06-26 02:30:00,
2013-06-25 20:35:00,57.1,53.9,29.78,SW,219,0.0,1.0,89,0.00,,,0.26,VWS V14.01,2013-06-26 02:35:00,
2013-06-25 20:40:00,57.0,53.8,29.78,SW,219,2.0,3.0,89,0.00,,,0.26,VWS V14.01,2013-06-26 02:40:00,
2013-06-25 20:45:00,56.7,53.5,29.78,SW,219,2.0,4.0,89,0.00,,,0.26,VWS V14.01,2013-06-26 02:45:00,
2013-06-25 20:50:00,56.4,53.2,29.78,SW,219,2.0,4.0,89,0.00,,,0.26,VWS V14.01,2013-06-26 02:50:00,
2013-06-25 20:55:00,56.3,53.1,29.79,SW,219,0.0,4.0,89,0.00,,,0.26,VWS V14.01,2013-06-26 02:55:00,
2013-06-25 21:00:00,56.4,53.2,29.79,SW,219,0.0,4.0,89,0.00,,,0.26,VWS V14.01,2013-06-26 03:00:00,
2013-06-25 21:05:00,56.3,53.1,29.79,SW,219,0.0,4.0,89,0.00,,,0.26,VWS V14.01,2013-06-26 03:05:00,
2013-06-25 21:10:00,56.4,53.2,29.79,SW,219,0.0,4.0,89,0.00,,,0.26,VWS V14.01,2013-06-26 03:10:00,
2013-06-25 21:15:00,56.5,53.3,29.79,SW,219,0.0,4.0,89,0.00,,,0.26,VWS V14.01,2013-06-26 03:15:00,
2013-06-25 21:20:00,56.2,53.0,29.79,SW,219,2.0,4.0,89,0.00,,,0.26,VWS V14.01,2013-06-26 03:20:00,
2013-06-25 21:25:00,56.2,53.0,29.79,SW,219,0.0,4.0,89,0.00,,,0.26,VWS V14.01,2013-06-26 03:25:00,
2013-06-25 21:30:00,56.2,53.0,29.79,SW,219,2.0,4.0,89,0.00,,,0.26,VWS V14.01,2013-06-26 03:30:00,
2013-06-25 21:35:00,55.9,52.7,29.79,SW,219,2.0,3.0,89,0.00,,,0.26,VWS V14.01,2013-06-26 03:35:00,
2013-06-25 21:40:00,55.8,52.6,29.80,SW,219,0.0,3.0,89,0.00,,,0.26,VWS V14.01,2013-06-26 03:40:00,
2013-06-25 21:45:00,55.6,52.4,29.80,SW,219,0.0,3.0,89,0.00,,,0.26,VWS V14.01,2013-06-26 03:45:00,
2013-06-25 21:50:00,55.4,52.2,29.80,SW,219,2.0,3.0,89,0.00,,,0.26,VWS V14.01,2013-06-26 03:50:00,
2013-06-25 21:55:00,55.4,53.1,29.80,SW,219,1.0,4.0,92,0.00,,,0.26,VWS V14.01,2013-06-26 03:55:00,
2013-06-25 22:00:00,55.3,52.1,29.80,SW,219,3.0,4.0,89,0.00,,,0.26,VPLive 1.2.5.27,2013-06-26 04:00:00,
2013-06-25 22:01:00,55.3,52.1,29.80,SW,219,4.0,4.0,89,0.00,,,0.26,VWS V14.01,2013-06-26 04:01:00,
2013-06-25 22:06:00,55.1,52.2,29.80,SW,219,0.0,6.0,90,0.00,,,0.26,VWS V14.01,2013-06-26 04:06:00,
2013-06-25 22:11:00,54.9,52.0,29.81,SW,219,0.0,6.0,90,0.00,,,0.26,VWS V14.01,2013-06-26 04:11:00,
2013-06-25 22:16:00,54.6,51.4,29.81,SW,219,1.0,6.0,89,0.00,,,0.26,VWS V14.01,2013-06-26 04:16:00,
2013-06-25 22:21:00,54.4,51.5,29.81,SW,219,0.0,6.0,90,0.00,,,0.26,VWS V14.01,2013-06-26 04:21:00,
2013-06-25 22:26:00,54.3,51.1,29.82,SW,219,0.0,6.0,89,0.00,,,0.26,VWS V14.01,2013-06-26 04:26:00,
2013-06-25 22:31:00,54.4,51.2,29.82,SW,219,3.0,6.0,89,0.00,,,0.26,VWS V14.01,2013-06-26 04:31:00,
2013-06-25 22:36:00,54.2,51.0,29.82,SW,219,3.0,4.0,89,0.00,,,0.26,VWS V14.01,2013-06-26 04:36:00,
2013-06-25 22:41:00,53.9,50.7,29.82,SW,219,3.0,4.0,89,0.00,,,0.26,VWS V14.01,2013-06-26 04:41:00,
2013-06-25 22:46:00,53.7,50.8,29.82,SW,219,0.0,5.0,90,0.00,,,0.26,VWS V14.01,2013-06-26 04:46:00,
2013-06-25 22:51:00,53.5,50.6,29.82,SW,219,0.0,5.0,90,0.00,,,0.26,VWS V14.01,2013-06-26 04:51:00,
2013-06-25 22:56:00,53.6,50.7,29.82,SE,136,0.0,5.0,90,0.00,,,0.26,VWS V14.01,2013-06-26 04:56:00,
2013-06-25 23:01:00,53.7,50.8,29.82,SE,136,0.0,5.0,90,0.00,,,0.26,VWS V14.01,2013-06-26 05:01:00,
2013-06-25 23:06:00,53.6,50.7,29.83,SE,136,0.0,0.0,90,0.00,,,0.26,VWS V14.01,2013-06-26 05:06:00,
2013-06-25 23:11:00,53.6,50.7,29.82,SE,136,2.0,4.0,90,0.00,,,0.26,VWS V14.01,2013-06-26 05:11:00,
2013-06-25 23:16:00,53.7,50.8,29.83,SE,136,0.0,4.0,90,0.00,,,0.26,VWS V14.01,2013-06-26 05:16:00,
2013-06-25 23:21:00,53.6,50.7,29.83,SE,136,0.0,4.0,90,0.00,,,0.26,VWS V14.01,2013-06-26 05:21:00,
2013-06-25 23:26:00,53.5,50.6,29.83,SE,136,0.0,4.0,90,0.00,,,0.26,VWS V14.01,2013-06-26 05:26:00,
2013-06-25 23:31:00,53.5,50.6,29.83,SE,136,0.0,4.0,90,0.00,,,0.26,VWS V14.01,2013-06-26 05:31:00,
2013-06-25 23:36:00,53.5,50.6,29.83,SE,136,0.0,0.0,90,0.00,,,0.26,VPLive 1.2.5.27,2013-06-26 05:36:00,
2013-06-25 23:41:00,53.6,50.7,29.83,SE,136,0.0,1.0,90,0.00,,,0.26,VWS V14.01,2013-06-26 05:41:00,
2013-06-25 23:46:00,53.3,50.5,29.83,SE,136,0.0,4.0,90,0.00,,,0.26,VWS V14.01,2013-06-26 05:46:00,
2013-06-25 23:51:00,53.4,50.5,29.83,SE,136,0.0,4.0,90,0.00,,,0.26,VWS V14.01,2013-06-26 05:51:00,
2013-06-25 23:56:00,53.3,50.5,29.83,SE,136,0.0,4.0,90,0.00,,,0.26,VWS V14.01,2013-06-26 05:56:00,